Time,TemperatureF,DewpointF,PressureIn,WindDirection,WindDirectionDegrees,WindSpeedMPH,WindSpeedGustMPH,Humidity,HourlyPrecipIn,Conditions,Clouds,dailyrainin,SoftwareType,DateUTC
2013-07-02 00:31:00,65.3,56.4,30.07,NNE,16,0.0,0.0,73,0.00,CLR,CLR,0.00,WeatherDisplay:10.37,2013-07-02 05:31:00,
2013-07-02 00:32:00,65.3,56.4,30.08,NNE,16,0.0,0.0,73,0.00,CLR,CLR,0.00,WeatherDisplay:10.37,2013-07-02 05:32:00,
2013-07-02 00:35:00,65.2,56.3,30.08,NNE,18,0.0,0.0,73,0.00,CLR,CLR,0.00,WeatherDisplay:10.37,2013-07-02 05:35:00,
2013-07-02 00:40:00,65.0,56.1,30.08,South,175,0.0,0.0,73,0.00,CLR,CLR,0.00,WeatherDisplay:10.37,2013-07-02 05:40:00,
2013-07-02 00:45:00,64.9,56.4,30.08,NNE,27,0.0,0.0,74,0.00,CLR,CLR,0.00,WeatherDisplay:10.37,2013-07-02 05:45:00,
2013-07-02 00:50:00,64.8,56.7,30.08,NNE,16,0.0,0.0,75,0.00,CLR,CLR,0.00,WeatherDisplay:10.37,2013-07-02 05:50:00,
2013-07-02 00:55:00,64.5,56.4,30.08,NNE,16,0.0,0.0,75,0.00,CLR,CLR,0.00,WeatherDisplay:10.37,2013-07-02 05:55:00,
2013-07-02 01:00:00,64.3,56.2,30.08,NNE,16,0.0,0.0,75,0.00,CLR,CLR,0.00,WeatherDisplay:10.37,2013-07-02 06:00:00,
2013-07-02 01:05:00,64.2,56.5,30.08,NNE,16,0.0,0.0,76,0.00,CLR,CLR,0.00,WeatherDisplay:10.37,2013-07-02 06:05:00,
2013-07-02 01:10:00,64.0,56.3,30.08,NNE,16,0.0,0.0,76,0.00,CLR,CLR,0.00,WeatherDisplay:10.37,2013-07-02 06:10:00,
2013-07-02 01:15:00,64.0,56.6,30.08,NNE,16,0.0,0.0,77,0.00,CLR,CLR,0.00,WeatherDisplay:10.37,2013-07-02 06:15:00,
2013-07-02 01:20:00,63.8,56.1,30.08,NNE,16,0.0,0.0,76,0.00,CLR,CLR,0.00,WeatherDisplay:10.37,2013-07-02 06:20:00,
2013-07-02 01:25:00,63.7,56.4,30.08,NNE,16,0.0,0.0,77,0.00,CLR,CLR,0.00,WeatherDisplay:10.37,2013-07-02 06:25:00,
2013-07-02 01:30:00,63.6,56.3,30.08,NNE,16,0.0,0.0,77,0.00,CLR,CLR,0.00,WeatherDisplay:10.37,2013-07-02 06:30:00,
2013-07-02 01:35:00,63.5,55.8,30.08,NNE,16,0.0,0.0,76,0.00,CLR,CLR,0.00,WeatherDisplay:10.37,2013-07-02 06:35:00,
2013-07-02 01:40:00,63.4,56.4,30.08,NNE,16,0.0,0.0,78,0.00,CLR,CLR,0.00,WeatherDisplay:10.37,2013-07-02 06:40:00,
2013-07-02 01:45:00,63.3,56.0,30.08,NNE,16,0.0,0.0,77,0.00,CLR,CLR,0.00,WeatherDisplay:10.37,2013-07-02 06:45:00,
2013-07-02 01:50:00,63.2,55.9,30.09,NNE,16,0.0,0.0,77,0.00,CLR,CLR,0.00,WeatherDisplay:10.37,2013-07-02 06:50:00,
2013-07-02 01:55:00,63.1,56.1,30.08,NNE,16,0.0,0.0,78,0.00,CLR,CLR,0.00,WeatherDisplay:10.37,2013-07-02 06:55:00,
2013-07-02 02:00:00,62.9,56.3,30.08,NNE,16,0.0,0.0,79,0.00,CLR,CLR,0.00,WeatherDisplay:10.37,2013-07-02 07:00:00,
2013-07-02 02:05:00,62.7,56.4,30.08,NNE,16,0.0,0.0,80,0.00,CLR,CLR,0.00,WeatherDisplay:10.37,2013-07-02 07:05:00,
2013-07-02 02:11:00,62.5,56.2,30.08,NNE,16,0.0,0.0,80,0.00,CLR,CLR,0.00,WeatherDisplay:10.37,2013-07-02 07:11:00,
2013-07-02 02:16:00,62.3,56.0,30.08,NNE,16,0.0,0.0,80,0.00,CLR,CLR,0.00,WeatherDisplay:10.37,2013-07-02 07:16:00,
2013-07-02 02:21:00,62.2,56.0,30.08,NNE,16,0.0,0.0,80,0.00,CLR,CLR,0.00,WeatherDisplay:10.37,2013-07-02 07:21:00,
2013-07-02 02:27:00,62.0,55.8,30.08,NNE,16,0.0,0.0,80,0.00,CLR,CLR,0.00,WeatherDisplay:10.37,2013-07-02 07:27:00,
2013-07-02 02:32:00,61.8,55.2,30.08,NNE,16,0.0,0.0,79,0.00,CLR,CLR,0.00,WeatherDisplay:10.37,2013-07-02 07:32:00,
2013-07-02 02:37:00,61.8,56.2,30.08,NNE,16,0.0,0.0,82,0.00,CLR,CLR,0.00,WeatherDisplay:10.37,2013-07-02 07:37:00,
2013-07-02 02:42:00,61.7,56.1,30.08,NNE,16,0.0,0.0,82,0.00,CLR,CLR,0.00,WeatherDisplay:10.37,2013-07-02 07:42:00,
2013-07-02 02:47:00,61.6,56.0,30.08,NNE,16,0.0,0.0,82,0.00,CLR,CLR,0.00,WeatherDisplay:10.37,2013-07-02 07:47:00,
2013-07-02 02:52:00,61.5,56.0,30.08,NNE,16,0.0,0.0,82,0.00,CLR,CLR,0.00,WeatherDisplay:10.37,2013-07-02 07:52:00,
2013-07-02 02:57:00,61.4,55.9,30.08,NNE,16,0.0,0.0,82,0.00,CLR,CLR,0.00,WeatherDisplay:10.37,2013-07-02 07:57:00,
2013-07-02 03:02:00,61.3,56.1,30.08,NNE,16,0.0,0.0,83,0.00,CLR,CLR,0.00,WeatherDisplay:10.37,2013-07-02 08:02:00,
2013-07-02 03:07:00,61.2,55.7,30.08,NNE,16,0.0,0.0,82,0.00,CLR,CLR,0.00,WeatherDisplay:10.37,2013-07-02 08:07:00,
2013-07-02 03:12:00,61.1,55.9,30.08,NNE,16,0.0,0.0,83,0.00,CLR,CLR,0.00,WeatherDisplay:10.37,2013-07-02 08:12:00,
2013-07-02 03:17:00,61.0,55.8,30.08,NNE,16,0.0,0.0,83,0.00,CLR,CLR,0.00,WeatherDisplay:10.37,2013-07-02 08:17:00,
2013-07-02 03:22:00,60.9,55.7,30.08,NNE,16,0.0,0.0,83,0.00,CLR,CLR,0.00,WeatherDisplay:10.37,2013-07-02 08:22:00,
2013-07-02 03:27:00,60.8,55.9,30.08,NNE,16,0.0,0.0,84,0.00,CLR,CLR,0.00,WeatherDisplay:10.37,2013-07-02 08:27:00,
2013-07-02 03:32:00,60.6,55.7,30.08,NNE,16,0.0,0.0,84,0.00,CLR,CLR,0.00,WeatherDisplay:10.37,2013-07-02 08:32:00,
2013-07-02 03:37:00,60.5,56.0,30.08,NNE,16,0.0,0.0,85,0.00,CLR,CLR,0.00,WeatherDisplay:10.37,2013-07-02 08:37:00,
2013-07-02 03:42:00,60.4,55.9,30.08,NNE,16,0.0,0.0,85,0.00,CLR,CLR,0.00,WeatherDisplay:10.37,2013-07-02 08:42:00,
2013-07-02 03:47:00,60.3,55.4,30.08,NNE,16,0.0,0.0,84,0.00,CLR,CLR,0.00,WeatherDisplay:10.37,2013-07-02 08:47:00,
2013-07-02 03:52:00,60.1,55.2,30.08,NNE,16,0.0,0.0,84,0.00,CLR,CLR,0.00,WeatherDisplay:10.37,2013-07-02 08:52:00,
2013-07-02 03:57:00,60.0,55.2,30.08,NNE,16,0.0,0.0,84,0.00,CLR,CLR,0.00,WeatherDisplay:10.37,2013-07-02 08:57:00,
2013-07-02 04:02:00,60.0,55.5,30.08,NNE,16,0.0,0.0,85,0.00,CLR,CLR,0.00,WeatherDisplay:10.37,2013-07-02 09:02:00,
2013-07-02 04:07:00,59.9,55.4,30.08,NNE,16,0.0,0.0,85,0.00,CLR,CLR,0.00,WeatherDisplay:10.37,2013-07-02 09:07:00,
2013-07-02 04:12:00,59.8,55.6,30.08,NNE,16,0.0,0.0,86,0.00,CLR,CLR,0.00,WeatherDisplay:10.37,2013-07-02 09:12:00,
2013-07-02 04:17:00,59.7,55.2,30.08,NNE,16,0.0,0.0,85,0.00,CLR,CLR,0.00,WeatherDisplay:10.37,2013-07-02 09:17:00,
2013-07-02 04:22:00,59.6,55.4,30.08,NNE,16,0.0,0.0,86,0.00,CLR,CLR,0.00,WeatherDisplay:10.37,2013-07-02 09:22:00,
2013-07-02 04:27:00,59.5,55.3,30.08,NNE,16,0.0,0.0,86,0.00,CLR,CLR,0.00,WeatherDisplay:10.37,2013-07-02 09:27:00,
2013-07-02 04:32:00,59.4,55.5,30.08,NNE,16,0.0,0.0,87,0.00,CLR,CLR,0.00,WeatherDisplay:10.37,2013-07-02 09:32:00,
2013-07-02 04:37:00,59.4,55.8,30.09,NNE,16,0.0,0.0,88,0.00,CLR,CLR,0.00,WeatherDisplay:10.37,2013-07-02 09:37:00,
2013-07-02 04:43:00,59.3,55.7,30.09,NNE,16,0.0,0.0,88,0.00,CLR,CLR,0.00,WeatherDisplay:10.37,2013-07-02 09:43:00,
2013-07-02 04:48:00,59.3,55.7,30.09,NNE,16,0.0,0.0,88,0.00,CLR,CLR,0.00,WeatherDisplay:10.37,2013-07-02 09:48:00,
2013-07-02 04:53:00,59.3,55.7,30.09,NNE,16,0.0,0.0,88,0.00,CLR,CLR,0.00,WeatherDisplay:10.37,2013-07-02 09:53:00,
2013-07-02 04:58:00,59.3,55.7,30.09,NNE,16,0.0,0.0,88,0.00,CLR,CLR,0.00,WeatherDisplay:10.37,2013-07-02 09:58:00,
2013-07-02 05:03:00,59.4,55.8,30.09,NNE,16,0.0,0.0,88,0.00,CLR,CLR,0.00,WeatherDisplay:10.37,2013-07-02 10:03:00,
2013-07-02 05:08:00,59.5,55.9,30.09,NNE,16,0.0,0.0,88,0.00,CLR,CLR,0.00,WeatherDisplay:10.37,2013-07-02 10:08:00,
2013-07-02 05:13:00,59.5,56.3,30.09,NNE,16,0.0,0.0,89,0.00,CLR,CLR,0.00,WeatherDisplay:10.37,2013-07-02 10:13:00,
2013-07-02 05:18:00,59.6,56.0,30.09,NNE,16,0.0,0.0,88,0.00,CLR,CLR,0.00,WeatherDisplay:10.37,2013-07-02 10:18:00,
2013-07-02 05:23:00,59.5,55.9,30.09,NNE,16,0.0,0.0,88,0.00,CLR,CLR,0.00,WeatherDisplay:10.37,2013-07-02 10:23:00,
2013-07-02 05:28:00,59.5,56.3,30.09,NNE,16,0.0,0.0,89,0.00,CLR,CLR,0.00,WeatherDisplay:10.37,2013-07-02 10:28:00,
2013-07-02 05:33:00,59.6,56.4,30.09,NNE,16,0.0,0.0,89,0.00,CLR,CLR,0.00,WeatherDisplay:10.37,2013-07-02 10:33:00,
2013-07-02 05:39:00,59.6,56.7,30.09,NNE,16,0.0,0.0,90,0.00,CLR,CLR,0.00,WeatherDisplay:10.37,2013-07-02 10:39:00,
2013-07-02 05:44:00,59.6,56.4,30.09,NNE,16,0.0,0.0,89,0.00,CLR,CLR,0.00,WeatherDisplay:10.37,2013-07-02 10:44:00,
2013-07-02 05:49:00,59.6,56.4,30.09,NNE,16,0.0,0.0,89,0.00,CLR,CLR,0.00,WeatherDisplay:10.37,2013-07-02 10:49:00,
2013-07-02 05:54:00,59.6,56.4,30.09,NNE,16,0.0,0.0,89,0.00,CLR,CLR,0.00,WeatherDisplay:10.37,2013-07-02 10:54:00,
2013-07-02 05:59:00,59.6,56.4,30.09,NNE,16,0.0,0.0,89,0.00,CLR,CLR,0.00,WeatherDisplay:10.37,2013-07-02 10:59:00,
2013-07-02 06:04:00,59.6,56.4,30.09,NNE,16,0.0,0.0,89,0.00,CLR,CLR,0.00,WeatherDisplay:10.37,2013-07-02 11:04:00,
2013-07-02 06:09:00,59.6,56.4,30.09,NNE,16,0.0,0.0,89,0.00,CLR,CLR,0.00,WeatherDisplay:10.37,2013-07-02 11:09:00,
2013-07-02 06:14:00,59.7,56.8,30.09,NNE,16,0.0,0.0,90,0.00,CLR,CLR,0.00,WeatherDisplay:10.37,2013-07-02 11:14:00,
2013-07-02 06:19:00,59.6,56.4,30.09,ENE,64,0.0,0.0,89,0.00,CLR,CLR,0.00,WeatherDisplay:10.37,2013-07-02 11:19:00,
2013-07-02 06:24:00,59.6,56.7,30.09,ENE,64,0.0,0.0,90,0.00,CLR,CLR,0.00,WeatherDisplay:10.37,2013-07-02 11:24:00,
2013-07-02 06:29:00,59.7,56.8,30.09,ENE,64,0.0,0.0,90,0.00,CLR,CLR,0.00,WeatherDisplay:10.37,2013-07-02 11:29:00,
2013-07-02 06:34:00,59.7,56.8,30.10,ENE,63,0.0,0.0,90,0.00,CLR,CLR,0.00,WeatherDisplay:10.37,2013-07-02 11:34:00,
2013-07-02 06:39:00,59.8,57.2,30.10,ENE,63,0.0,0.0,91,0.00,CLR,CLR,0.00,WeatherDisplay:10.37,2013-07-02 11:39:00,
2013-07-02 06:44:00,60.0,57.4,30.10,ENE,63,0.0,0.0,91,0.00,CLR,CLR,0.00,WeatherDisplay:10.37,2013-07-02 11:44:00,
2013-07-02 06:49:00,60.1,57.2,30.10,ENE,63,0.0,0.0,90,0.00,CLR,CLR,0.00,WeatherDisplay:10.37,2013-07-02 11:49:00,
2013-07-02 06:54:00,60.5,57.6,30.10,ENE,63,0.0,0.0,90,0.00,CLR,CLR,0.00,WeatherDisplay:10.37,2013-07-02 11:54:00,
2013-07-02 06:59:00,60.9,57.6,30.10,ENE,63,0.0,0.0,89,0.00,CLR,CLR,0.00,WeatherDisplay:10.37,2013-07-02 11:59:00,
2013-07-02 07:04:00,61.3,58.0,30.10,ENE,63,0.0,0.0,89,0.00,CLR,CLR,0.00,WeatherDisplay:10.37,2013-07-02 12:04:00,
2013-07-02 07:09:00,61.7,58.4,30.10,ENE,63,0.0,0.0,89,0.00,CLR,CLR,0.00,WeatherDisplay:10.37,2013-07-02 12:09:00,
2013-07-02 07:14:00,61.9,58.0,30.10,ENE,63,0.0,0.0,87,0.00,CLR,CLR,0.00,WeatherDisplay:10.37,2013-07-02 12:14:00,
2013-07-02 07:19:00,62.4,58.2,30.10,ENE,63,0.0,0.0,86,0.00,CLR,CLR,0.00,WeatherDisplay:10.37,2013-07-02 12:19:00,
2013-07-02 07:24:00,62.6,57.7,30.10,ENE,63,0.0,0.0,84,0.00,CLR,CLR,0.00,WeatherDisplay:10.37,2013-07-02 12:24:00,
2013-07-02 07:29:00,62.9,58.0,30.10,ENE,63,0.0,0.0,84,0.00,CLR,CLR,0.00,WeatherDisplay:10.37,2013-07-02 12:29:00,
2013-07-02 07:34:00,63.2,57.9,30.10,ENE,63,0.0,0.0,83,0.00,CLR,CLR,0.00,WeatherDisplay:10.37,2013-07-02 12:34:00,
2013-07-02 07:39:00,63.6,58.3,30.10,ENE,63,0.0,0.0,83,0.00,CLR,CLR,0.00,WeatherDisplay:10.37,2013-07-02 12:39:00,
2013-07-02 07:44:00,63.8,58.2,30.10,ENE,63,0.0,0.0,82,0.00,CLR,CLR,0.00,WeatherDisplay:10.37,2013-07-02 12:44:00,
2013-07-02 07:49:00,64.0,58.1,30.10,ENE,63,0.0,0.0,81,0.00,CLR,CLR,0.00,WeatherDisplay:10.37,2013-07-02 12:49:00,
2013-07-02 07:54:00,64.3,58.7,30.10,ENE,63,0.0,0.0,82,0.00,CLR,CLR,0.00,WeatherDisplay:10.37,2013-07-02 12:54:00,
2013-07-02 07:59:00,64.7,58.4,30.10,ENE,63,0.0,0.0,80,0.00,CLR,CLR,0.00,WeatherDisplay:10.37,2013-07-02 12:59:00,
2013-07-02 08:04:00,65.0,58.3,30.10,ENE,63,0.0,0.0,79,0.00,CLR,CLR,0.00,WeatherDisplay:10.37,2013-07-02 13:04:00,
2013-07-02 08:09:00,65.5,59.2,30.10,ENE,63,0.0,0.0,80,0.00,CLR,CLR,0.00,WeatherDisplay:10.37,2013-07-02 13:09:00,
2013-07-02 08:14:00,66.2,58.8,30.11,ENE,63,0.0,0.0,77,0.00,CLR,CLR,0.00,WeatherDisplay:10.37,2013-07-02 13:14:00,
2013-07-02 08:19:00,67.3,59.8,30.11,ENE,63,0.0,0.0,77,0.00,CLR,CLR,0.00,WeatherDisplay:10.37,2013-07-02 13:19:00,
2013-07-02 08:24:00,68.2,59.6,30.10,ENE,63,0.0,0.0,74,0.00,CLR,CLR,0.00,WeatherDisplay:10.37,2013-07-02 13:24:00,
2013-07-02 08:29:00,68.5,59.1,30.10,ENE,63,0.0,0.0,72,0.00,CLR,CLR,0.00,WeatherDisplay:10.37,2013-07-02 13:29:00,
2013-07-02 08:34:00,69.1,59.7,30.10,ENE,63,0.0,0.0,72,0.00,CLR,CLR,0.00,WeatherDisplay:10.37,2013-07-02 13:34:00,
2013-07-02 08:39:00,69.5,59.7,30.10,ENE,63,0.0,0.0,71,0.00,CLR,CLR,0.00,WeatherDisplay:10.37,2013-07-02 13:39:00,
2013-07-02 08:44:00,69.7,59.9,30.10,East,94,0.0,0.0,71,0.00,CLR,CLR,0.00,WeatherDisplay:10.37,2013-07-02 13:44:00,
2013-07-02 08:49:00,70.0,59.8,30.10,SSE,163,1.2,1.2,70,0.00,CLR,CLR,0.00,WeatherDisplay:10.37,2013-07-02 13:49:00,
2013-07-02 08:54:00,70.2,60.0,30.10,SSE,163,0.0,0.0,70,0.00,CLR,CLR,0.00,WeatherDisplay:10.37,2013-07-02 13:54:00,
2013-07-02 08:59:00,70.4,59.7,30.10,SSE,163,1.2,0.0,69,0.00,CLR,CLR,0.00,WeatherDisplay:10.37,2013-07-02 13:59:00,
2013-07-02 09:04:00,70.7,60.4,30.10,SW,216,2.0,2.0,70,0.00,CLR,CLR,0.00,WeatherDisplay:10.37,2013-07-02 14:04:00,
2013-07-02 09:10:00,71.2,58.0,30.10,SW,216,2.0,4.0,63,0.00,CLR,CLR,0.00,WeatherDisplay:10.37,2013-07-02 14:10:00,
2013-07-02 09:15:00,71.5,57.3,30.10,WSW,254,1.2,1.2,61,0.00,CLR,CLR,0.00,WeatherDisplay:10.37,2013-07-02 14:15:00,
2013-07-02 09:20:00,71.8,57.6,30.10,WSW,237,2.3,2.3,61,0.00,CLR,CLR,0.00,WeatherDisplay:10.37,2013-07-02 14:20:00,
2013-07-02 09:25:00,72.3,58.5,30.10,SW,229,1.2,0.0,62,0.00,CLR,CLR,0.00,WeatherDisplay:10.37,2013-07-02 14:25:00,
2013-07-02 09:30:00,72.8,57.2,30.10,WSW,253,2.3,2.3,58,0.00,CLR,CLR,0.00,WeatherDisplay:10.37,2013-07-02 14:30:00,
2013-07-02 09:35:00,72.9,56.8,30.10,WSW,254,2.3,2.3,57,0.00,CLR,CLR,0.00,WeatherDisplay:10.37,2013-07-02 14:35:00,
2013-07-02 09:40:00,73.2,57.1,30.10,WSW,257,3.5,3.5,57,0.00,CLR,CLR,0.00,WeatherDisplay:10.37,2013-07-02 14:40:00,
2013-07-02 09:45:00,73.5,57.3,30.10,West,259,3.5,3.5,57,0.00,CLR,CLR,0.00,WeatherDisplay:10.37,2013-07-02 14:45:00,
2013-07-02 09:50:00,73.7,58.0,30.10,WSW,255,3.5,3.5,58,0.00,CLR,CLR,0.00,WeatherDisplay:10.37,2013-07-02 14:50:00,
2013-07-02 09:55:00,74.3,58.6,30.10,SE,144,1.2,0.0,58,0.00,CLR,CLR,0.00,WeatherDisplay:10.37,2013-07-02 14:55:00,
2013-07-02 10:00:00,75.0,58.7,30.09,SW,217,2.3,2.3,57,0.00,CLR,CLR,0.00,WeatherDisplay:10.37,2013-07-02 15:00:00,
2013-07-02 10:06:00,75.3,57.0,30.09,WSW,258,3.5,3.5,53,0.00,CLR,CLR,0.00,WeatherDisplay:10.37,2013-07-02 15:06:00,
2013-07-02 10:11:00,75.6,57.3,30.09,WSW,248,1.2,1.2,53,0.00,CLR,CLR,0.00,WeatherDisplay:10.37,2013-07-02 15:11:00,
2013-07-02 10:16:00,76.0,57.6,30.09,WSW,248,2.3,2.3,53,0.00,CLR,CLR,0.00,WeatherDisplay:10.37,2013-07-02 15:16:00,
2013-07-02 10:21:00,76.1,58.2,30.09,WSW,253,3.5,3.5,54,0.00,CLR,CLR,0.00,WeatherDisplay:10.37,2013-07-02 15:21:00,
2013-07-02 10:26:00,76.3,57.4,30.09,WSW,253,1.0,1.0,52,0.00,CLR,CLR,0.00,WeatherDisplay:10.37,2013-07-02 15:26:00,
2013-07-02 10:31:00,76.5,55.3,30.09,WSW,248,4.0,4.0,48,0.00,CLR,CLR,0.00,WeatherDisplay:10.37,2013-07-02 15:31:00,
2013-07-02 10:36:00,77.1,55.3,30.09,SW,235,1.2,1.2,47,0.00,CLR,CLR,0.00,WeatherDisplay:10.37,2013-07-02 15:36:00,
2013-07-02 10:41:00,77.6,55.8,30.09,WSW,239,2.3,2.3,47,0.00,CLR,CLR,0.00,WeatherDisplay:10.37,2013-07-02 15:41:00,
2013-07-02 10:46:00,77.5,54.5,30.09,WSW,252,3.5,3.5,45,0.00,CLR,CLR,0.00,WeatherDisplay:10.37,2013-07-02 15:46:00,
2013-07-02 10:51:00,77.6,55.8,30.09,West,261,2.3,2.3,47,0.00,CLR,CLR,0.00,WeatherDisplay:10.37,2013-07-02 15:51:00,
2013-07-02 10:56:00,77.8,55.4,30.09,WSW,242,3.5,3.5,46,0.00,CLR,CLR,0.00,WeatherDisplay:10.37,2013-07-02 15:56:00,
2013-07-02 11:01:00,77.8,54.1,30.09,WSW,247,4.0,4.0,44,0.00,CLR,CLR,0.00,WeatherDisplay:10.37,2013-07-02 16:01:00,
2013-07-02 11:06:00,77.9,57.2,30.09,WSW,248,2.0,2.0,49,0.00,CLR,CLR,0.00,WeatherDisplay:10.37,2013-07-02 16:06:00,
2013-07-02 12:31:00,81.6,56.9,30.09,East,94,1.2,1.2,43,0.00,CLR,CLR,0.00,WeatherDisplay:10.37,2013-07-02 17:31:00,
2013-07-02 12:36:00,81.7,58.9,30.08,SSE,148,1.2,1.2,46,0.00,CLR,CLR,0.00,WeatherDisplay:10.37,2013-07-02 17:36:00,
2013-07-02 12:41:00,82.0,56.6,30.08,SW,222,3.0,3.0,42,0.00,CLR,CLR,0.00,WeatherDisplay:10.37,2013-07-02 17:41:00,
2013-07-02 12:46:00,82.0,57.9,30.08,ESE,114,1.2,0.0,44,0.00,CLR,CLR,0.00,WeatherDisplay:10.37,2013-07-02 17:46:00,
2013-07-02 12:51:00,82.2,54.1,30.08,SSE,149,2.3,2.3,38,0.00,CLR,CLR,0.00,WeatherDisplay:10.37,2013-07-02 17:51:00,
2013-07-02 12:56:00,81.7,55.7,30.08,SW,216,0.0,0.0,41,0.00,CLR,CLR,0.00,WeatherDisplay:10.37,2013-07-02 17:56:00,
2013-07-02 13:01:00,81.6,55.6,30.08,SSW,204,2.0,2.0,41,0.00,CLR,CLR,0.00,WeatherDisplay:10.37,2013-07-02 18:01:00,
2013-07-02 13:06:00,81.3,56.7,30.08,SSW,204,1.0,0.0,43,0.00,CLR,CLR,0.00,WeatherDisplay:10.37,2013-07-02 18:06:00,
2013-07-02 13:11:00,81.2,55.9,30.08,SSE,165,1.2,0.0,42,0.00,CLR,CLR,0.00,WeatherDisplay:10.37,2013-07-02 18:11:00,
2013-07-02 13:16:00,81.2,57.8,30.07,SW,230,2.3,0.0,45,0.00,CLR,CLR,0.00,WeatherDisplay:10.37,2013-07-02 18:16:00,
2013-07-02 13:21:00,81.7,57.7,30.08,SW,217,3.0,3.0,44,0.00,CLR,CLR,0.00,WeatherDisplay:10.37,2013-07-02 18:21:00,
2013-07-02 13:26:00,82.1,55.4,30.07,SSE,167,1.2,1.2,40,0.00,CLR,CLR,0.00,WeatherDisplay:10.37,2013-07-02 18:26:00,
2013-07-02 13:30:00,82.5,59.0,30.07,ESE,117,1.0,4.0,45,0.00,CLR,CLR,0.00,WeatherDisplay:10.37,2013-07-02 18:30:00,
2013-07-02 13:35:00,83.4,57.2,30.07,SW,231,1.2,1.2,41,0.00,CLR,CLR,0.00,WeatherDisplay:10.37,2013-07-02 18:35:00,
2013-07-02 13:40:00,83.7,58.8,30.07,SE,138,2.3,2.3,43,0.00,CLR,CLR,0.00,WeatherDisplay:10.37,2013-07-02 18:40:00,
2013-07-02 13:45:00,83.7,56.1,30.07,WSW,251,3.5,3.5,39,0.00,CLR,CLR,0.00,WeatherDisplay:10.37,2013-07-02 18:45:00,
2013-07-02 13:50:00,83.6,58.1,30.06,SSE,155,2.0,2.0,42,0.00,CLR,CLR,0.00,WeatherDisplay:10.37,2013-07-02 18:50:00,
2013-07-02 13:55:00,83.0,57.5,30.06,SSW,200,2.3,2.3,42,0.00,CLR,CLR,0.00,WeatherDisplay:10.37,2013-07-02 18:55:00,
2013-07-02 14:00:00,83.4,57.9,30.06,SSW,209,2.3,2.3,42,0.00,CLR,CLR,0.00,WeatherDisplay:10.37,2013-07-02 19:00:00,
2013-07-02 14:05:00,83.8,57.6,30.07,South,182,0.0,0.0,41,0.00,CLR,CLR,0.00,WeatherDisplay:10.37,2013-07-02 19:05:00,
2013-07-02 14:10:00,83.9,57.0,30.06,SW,219,0.0,0.0,40,0.00,CLR,CLR,0.00,WeatherDisplay:10.37,2013-07-02 19:10:00,
2013-07-02 14:15:00,83.5,55.9,30.06,South,172,0.0,0.0,39,0.00,CLR,CLR,0.00,WeatherDisplay:10.37,2013-07-02 19:15:00,
2013-07-02 14:20:00,83.4,55.1,30.06,ESE,120,1.2,1.2,38,0.00,CLR,CLR,0.00,WeatherDisplay:10.37,2013-07-02 19:20:00,
2013-07-02 14:25:00,83.6,56.7,30.06,SW,234,1.0,1.0,40,0.00,CLR,CLR,0.00,WeatherDisplay:10.37,2013-07-02 19:25:00,
2013-07-02 14:30:00,83.6,58.1,30.06,SW,233,2.0,2.0,42,0.00,CLR,CLR,0.00,WeatherDisplay:10.37,2013-07-02 19:30:00,
2013-07-02 14:35:00,83.8,56.9,30.05,SSE,167,2.3,2.3,40,0.00,CLR,CLR,0.00,WeatherDisplay:10.37,2013-07-02 19:35:00,
2013-07-02 14:40:00,84.1,57.2,30.05,West,263,0.0,0.0,40,0.00,CLR,CLR,0.00,WeatherDisplay:10.37,2013-07-02 19:40:00,
2013-07-02 14:45:00,84.2,56.6,30.05,WSW,241,2.3,2.3,39,0.00,CLR,CLR,0.00,WeatherDisplay:10.37,2013-07-02 19:45:00,
2013-07-02 14:50:00,84.5,56.1,30.04,ESE,117,1.2,0.0,38,0.00,CLR,CLR,0.00,WeatherDisplay:10.37,2013-07-02 19:50:00,
2013-07-02 14:55:00,84.9,57.2,30.04,SSW,213,2.3,2.3,39,0.00,CLR,CLR,0.00,WeatherDisplay:10.37,2013-07-02 19:55:00,
2013-07-02 15:00:00,85.1,57.4,30.04,WSW,257,3.5,3.5,39,0.00,CLR,CLR,0.00,WeatherDisplay:10.37,2013-07-02 20:00:00,
2013-07-02 15:05:00,84.9,55.7,30.04,SW,231,7.0,7.0,37,0.00,CLR,CLR,0.00,WeatherDisplay:10.37,2013-07-02 20:05:00,
2013-07-02 15:10:00,84.5,56.8,30.04,WSW,257,0.0,0.0,39,0.00,CLR,CLR,0.00,WeatherDisplay:10.37,2013-07-02 20:10:00,
2013-07-02 15:15:00,84.9,57.2,30.04,ENE,69,1.2,1.2,39,0.00,CLR,CLR,0.00,WeatherDisplay:10.37,2013-07-02 20:15:00,
2013-07-02 15:20:00,85.6,57.1,30.03,SE,131,2.3,2.3,38,0.00,CLR,CLR,0.00,WeatherDisplay:10.37,2013-07-02 20:20:00,
2013-07-02 15:25:00,86.0,56.7,30.03,East,86,1.2,1.2,37,0.00,CLR,CLR,0.00,WeatherDisplay:10.37,2013-07-02 20:25:00,
2013-07-02 15:30:00,86.0,55.9,30.03,East,91,0.0,0.0,36,0.00,CLR,CLR,0.00,WeatherDisplay:10.37,2013-07-02 20:30:00,
2013-07-02 15:35:00,85.6,56.3,30.03,East,96,1.0,1.0,37,0.00,CLR,CLR,0.00,WeatherDisplay:10.37,2013-07-02 20:35:00,
2013-07-02 15:40:00,85.2,56.0,30.03,East,96,0.0,0.0,37,0.00,CLR,CLR,0.00,WeatherDisplay:10.37,2013-07-02 20:40:00,
2013-07-02 15:45:00,84.6,54.7,30.03,East,96,0.0,0.0,36,0.00,CLR,CLR,0.00,WeatherDisplay:10.37,2013-07-02 20:45:00,
2013-07-02 15:50:00,84.3,55.9,30.03,East,96,0.0,0.0,38,0.00,CLR,CLR,0.00,WeatherDisplay:10.37,2013-07-02 20:50:00,
2013-07-02 15:55:00,83.8,55.5,30.03,SSE,166,0.0,0.0,38,0.00,CLR,CLR,0.00,WeatherDisplay:10.37,2013-07-02 20:55:00,
2013-07-02 16:00:00,83.3,53.6,30.03,SSE,166,0.0,0.0,36,0.00,CLR,CLR,0.00,WeatherDisplay:10.37,2013-07-02 21:00:00,
2013-07-02 16:05:00,82.7,55.9,30.02,SSE,166,0.0,0.0,40,0.00,CLR,CLR,0.00,WeatherDisplay:10.37,2013-07-02 21:05:00,
2013-07-02 16:10:00,82.4,55.7,30.02,WSW,249,2.3,2.3,40,0.00,CLR,CLR,0.00,WeatherDisplay:10.37,2013-07-02 21:10:00,
2013-07-02 16:15:00,82.1,57.4,30.01,SE,140,1.2,0.0,43,0.00,CLR,CLR,0.00,WeatherDisplay:10.37,2013-07-02 21:15:00,
2013-07-02 16:20:00,81.8,55.8,30.02,South,179,1.2,0.0,41,0.00,CLR,CLR,0.00,WeatherDisplay:10.37,2013-07-02 21:20:00,
2013-07-02 16:25:00,81.6,56.3,30.02,South,169,1.0,1.0,42,0.00,CLR,CLR,0.00,WeatherDisplay:10.37,2013-07-02 21:25:00,
2013-07-02 16:30:00,81.4,55.4,30.03,South,169,0.0,0.0,41,0.00,CLR,CLR,0.00,WeatherDisplay:10.37,2013-07-02 21:30:00,
2013-07-02 16:35:00,81.3,58.5,30.03,South,169,0.0,0.0,46,0.00,CLR,CLR,0.00,WeatherDisplay:10.37,2013-07-02 21:35:00,
2013-07-02 16:40:00,80.9,56.3,30.02,South,169,0.0,0.0,43,0.00,CLR,CLR,0.00,WeatherDisplay:10.37,2013-07-02 21:40:00,
2013-07-02 16:45:00,80.5,56.6,30.03,South,169,0.0,0.0,44,0.00,CLR,CLR,0.00,WeatherDisplay:10.37,2013-07-02 21:45:00,
2013-07-02 16:50:00,80.2,56.3,30.03,South,169,0.0,0.0,44,0.00,CLR,CLR,0.00,WeatherDisplay:10.37,2013-07-02 21:50:00,
2013-07-02 16:55:00,79.9,56.0,30.03,South,169,0.0,0.0,44,0.00,CLR,CLR,0.00,WeatherDisplay:10.37,2013-07-02 21:55:00,
2013-07-02 17:00:00,79.6,55.8,30.03,South,169,0.0,0.0,44,0.00,CLR,CLR,0.00,WeatherDisplay:10.37,2013-07-02 22:00:00,
2013-07-02 17:05:00,79.2,55.4,30.03,South,169,0.0,0.0,44,0.00,CLR,CLR,0.00,WeatherDisplay:10.37,2013-07-02 22:05:00,
2013-07-02 17:10:00,78.9,57.0,30.03,South,169,0.0,0.0,47,0.00,CLR,CLR,0.00,WeatherDisplay:10.37,2013-07-02 22:10:00,
2013-07-02 17:15:00,78.6,56.1,30.03,ESE,117,1.2,1.2,46,0.00,CLR,CLR,0.00,WeatherDisplay:10.37,2013-07-02 22:15:00,
2013-07-02 17:20:00,78.2,56.9,30.03,NNE,18,4.0,4.0,48,0.00,CLR,CLR,0.00,WeatherDisplay:10.37,2013-07-02 22:20:00,
2013-07-02 17:25:00,77.1,57.6,30.03,NNE,15,2.3,2.3,51,0.00,CLR,CLR,0.00,WeatherDisplay:10.37,2013-07-02 22:25:00,
2013-07-02 17:30:00,76.3,57.9,30.03,NNE,24,2.3,2.3,53,0.00,CLR,CLR,0.00,WeatherDisplay:10.37,2013-07-02 22:30:00,
2013-07-02 17:35:00,75.5,57.7,30.03,NNW,334,3.5,3.5,54,0.00,CLR,CLR,0.00,WeatherDisplay:10.37,2013-07-02 22:35:00,
2013-07-02 17:40:00,74.9,57.6,30.03,NNW,336,2.3,2.3,55,0.00,CLR,CLR,0.00,WeatherDisplay:10.37,2013-07-02 22:40:00,
2013-07-02 17:45:00,74.5,57.8,30.03,NNE,22,1.2,0.0,56,0.00,CLR,CLR,0.00,WeatherDisplay:10.37,2013-07-02 22:45:00,
2013-07-02 17:50:00,74.3,59.0,30.02,NNE,33,1.0,1.0,59,0.00,CLR,CLR,0.00,WeatherDisplay:10.37,2013-07-02 22:50:00,
2013-07-02 17:55:00,74.1,59.8,30.02,NNE,33,1.2,0.0,61,0.00,CLR,CLR,0.00,WeatherDisplay:10.37,2013-07-02 22:55:00,
2013-07-02 18:00:00,73.8,60.0,30.01,NNE,33,0.0,0.0,62,0.00,CLR,CLR,0.00,WeatherDisplay:10.37,2013-07-02 23:00:00,
2013-07-02 18:05:00,73.6,59.3,30.01,NNE,33,0.0,0.0,61,0.00,CLR,CLR,0.00,WeatherDisplay:10.37,2013-07-02 23:05:00,
2013-07-02 18:10:00,73.2,58.9,30.01,NNE,32,0.0,0.0,61,0.00,CLR,CLR,0.00,WeatherDisplay:10.37,2013-07-02 23:10:00,
2013-07-02 18:15:00,73.1,59.3,30.01,NNE,32,0.0,0.0,62,0.00,CLR,CLR,0.00,WeatherDisplay:10.37,2013-07-02 23:15:00,
2013-07-02 18:20:00,73.3,60.8,30.02,ENE,76,0.0,0.0,65,0.00,CLR,CLR,0.00,WeatherDisplay:10.37,2013-07-02 23:20:00,
2013-07-02 18:25:00,73.5,61.0,30.02,NE,53,0.0,0.0,65,0.00,CLR,CLR,0.00,WeatherDisplay:10.37,2013-07-02 23:25:00,
2013-07-02 18:30:00,73.6,60.7,30.02,ENE,63,1.0,0.0,64,0.00,CLR,CLR,0.00,WeatherDisplay:10.37,2013-07-02 23:30:00,
2013-07-02 18:35:00,73.7,60.3,30.02,ENE,63,0.0,0.0,63,0.00,CLR,CLR,0.00,WeatherDisplay:10.37,2013-07-02 23:35:00,
2013-07-02 18:38:00,73.8,60.9,30.02,ENE,63,0.0,0.0,64,0.00,CLR,CLR,0.00,WeatherDisplay:10.37,2013-07-02 23:38:00,
2013-07-02 18:43:00,74.0,60.6,30.02,ENE,63,0.0,0.0,63,0.00,CLR,CLR,0.00,WeatherDisplay:10.37,2013-07-02 23:43:00,
2013-07-02 18:48:00,74.3,60.4,30.01,ENE,63,0.0,0.0,62,0.00,CLR,CLR,0.00,WeatherDisplay:10.37,2013-07-02 23:48:00,
2013-07-02 18:53:00,74.6,59.8,30.01,East,81,0.0,0.0,60,0.00,CLR,CLR,0.00,WeatherDisplay:10.37,2013-07-02 23:53:00,
2013-07-02 18:54:00,74.6,59.8,30.01,East,81,1.2,1.2,60,0.00,CLR,CLR,0.00,WeatherDisplay:10.37,2013-07-02 23:54:00,
2013-07-02 18:59:00,74.9,59.6,30.01,East,81,1.2,1.2,59,0.00,CLR,CLR,0.00,WeatherDisplay:10.37,2013-07-02 23:59:00,
2013-07-02 19:04:00,75.1,60.7,30.01,East,81,1.0,1.0,61,0.00,CLR,CLR,0.00,WeatherDisplay:10.37,2013-07-03 00:04:00,
2013-07-02 19:07:00,75.2,61.3,30.00,East,81,0.0,0.0,62,0.00,CLR,CLR,0.00,WeatherDisplay:10.37,2013-07-03 00:07:00,
2013-07-02 19:12:00,75.2,61.3,30.00,WSW,238,2.0,2.0,62,0.00,CLR,CLR,0.00,WeatherDisplay:10.37,2013-07-03 00:12:00,
2013-07-02 19:17:00,75.2,60.8,30.00,WSW,238,0.0,0.0,61,0.00,CLR,CLR,0.00,WeatherDisplay:10.37,2013-07-03 00:17:00,
2013-07-02 19:19:00,75.2,60.8,30.00,WSW,238,1.0,1.0,61,0.00,CLR,CLR,0.00,WeatherDisplay:10.37,2013-07-03 00:19:00,
2013-07-02 19:24:00,75.3,60.5,30.00,WSW,238,1.2,1.2,60,0.00,CLR,CLR,0.00,WeatherDisplay:10.37,2013-07-03 00:24:00,
2013-07-02 19:29:00,75.5,61.6,30.00,WSW,238,1.2,1.2,62,0.00,CLR,CLR,0.00,WeatherDisplay:10.37,2013-07-03 00:29:00,
2013-07-02 19:30:00,75.5,61.1,30.00,WSW,238,1.0,2.0,61,0.00,CLR,CLR,0.00,WeatherDisplay:10.37,2013-07-03 00:30:00,
2013-07-02 19:34:00,75.8,60.0,30.00,WSW,255,4.0,4.0,58,0.00,CLR,CLR,0.00,WeatherDisplay:10.37,2013-07-03 00:34:00,
2013-07-02 19:39:00,76.0,59.7,30.00,WSW,250,3.5,3.5,57,0.00,CLR,CLR,0.00,WeatherDisplay:10.37,2013-07-03 00:39:00,
2013-07-02 19:44:00,76.0,60.6,29.99,WSW,250,2.3,2.3,59,0.00,CLR,CLR,0.00,WeatherDisplay:10.37,2013-07-03 00:44:00,
2013-07-02 19:49:00,75.8,60.9,30.00,WSW,251,2.3,2.3,60,0.00,CLR,CLR,0.00,WeatherDisplay:10.37,2013-07-03 00:49:00,
2013-07-02 19:54:00,75.6,60.3,30.00,WSW,251,1.0,1.0,59,0.00,CLR,CLR,0.00,WeatherDisplay:10.37,2013-07-03 00:54:00,
2013-07-02 19:59:00,75.3,60.0,30.00,WSW,250,3.0,3.0,59,0.00,CLR,CLR,0.00,WeatherDisplay:10.37,2013-07-03 00:59:00,
2013-07-02 20:03:00,75.1,59.8,30.00,WSW,249,3.5,3.5,59,0.00,CLR,CLR,0.00,WeatherDisplay:10.37,2013-07-03 01:03:00,
2013-07-02 20:05:00,75.0,59.7,30.00,WSW,252,2.0,3.0,59,0.00,CLR,CLR,0.00,WeatherDisplay:10.37,2013-07-03 01:05:00,
2013-07-02 20:09:00,74.8,59.5,30.00,WSW,250,2.3,2.3,59,0.00,CLR,CLR,0.00,WeatherDisplay:10.37,2013-07-03 01:09:00,
2013-07-02 20:14:00,74.6,58.8,30.00,WSW,256,2.3,2.3,58,0.00,CLR,CLR,0.00,WeatherDisplay:10.37,2013-07-03 01:14:00,
2013-07-02 20:19:00,74.3,59.5,30.00,WSW,255,3.5,3.5,60,0.00,CLR,CLR,0.00,WeatherDisplay:10.37,2013-07-03 01:19:00,
2013-07-02 20:24:00,74.0,59.7,30.00,WSW,257,2.3,2.3,61,0.00,CLR,CLR,0.00,WeatherDisplay:10.37,2013-07-03 01:24:00,
2013-07-02 20:28:00,73.9,59.6,30.00,WSW,256,0.0,0.0,61,0.00,CLR,CLR,0.00,WeatherDisplay:10.37,2013-07-03 01:28:00,
2013-07-02 20:33:00,73.7,60.3,30.00,WSW,257,1.0,1.0,63,0.00,CLR,CLR,0.00,WeatherDisplay:10.37,2013-07-03 01:33:00,
2013-07-02 20:38:00,73.3,59.9,30.00,WSW,257,2.0,2.0,63,0.00,CLR,CLR,0.00,WeatherDisplay:10.37,2013-07-03 01:38:00,
2013-07-02 20:43:00,73.0,60.5,30.00,WSW,257,0.0,0.0,65,0.00,CLR,CLR,0.00,WeatherDisplay:10.37,2013-07-03 01:43:00,
2013-07-02 20:49:00,72.7,60.3,30.00,WSW,256,0.0,0.0,65,0.00,CLR,CLR,0.00,WeatherDisplay:10.37,2013-07-03 01:49:00,
2013-07-02 20:54:00,72.5,60.1,30.00,WSW,256,0.0,0.0,65,0.00,CLR,CLR,0.00,WeatherDisplay:10.37,2013-07-03 01:54:00,
2013-07-02 20:56:00,72.4,60.4,30.00,WSW,257,1.2,1.2,66,0.00,CLR,CLR,0.00,WeatherDisplay:10.37,2013-07-03 01:56:00,
2013-07-02 21:01:00,72.1,60.5,30.00,WSW,257,0.0,0.0,67,0.00,CLR,CLR,0.00,WeatherDisplay:10.37,2013-07-03 02:01:00,
2013-07-02 21:06:00,71.8,60.2,30.00,WSW,257,0.0,0.0,67,0.00,CLR,CLR,0.00,WeatherDisplay:10.37,2013-07-03 02:06:00,
2013-07-02 21:11:00,71.5,60.4,30.01,WSW,256,0.0,0.0,68,0.00,CLR,CLR,0.00,WeatherDisplay:10.37,2013-07-03 02:11:00,
2013-07-02 21:17:00,71.2,59.7,30.01,WSW,257,1.2,1.2,67,0.00,CLR,CLR,0.00,WeatherDisplay:10.37,2013-07-03 02:17:00,
2013-07-02 21:24:00,71.2,60.1,30.01,WSW,257,0.0,0.0,68,0.00,CLR,CLR,0.00,WeatherDisplay:10.37,2013-07-03 02:24:00,
2013-07-02 21:29:00,71.1,60.0,30.01,WSW,256,0.0,0.0,68,0.00,CLR,CLR,0.00,WeatherDisplay:10.37,2013-07-03 02:29:00,
2013-07-02 21:34:00,70.8,60.1,30.01,WSW,256,0.0,0.0,69,0.00,CLR,CLR,0.00,WeatherDisplay:10.37,2013-07-03 02:34:00,
2013-07-02 21:39:00,70.6,59.9,30.01,WSW,257,1.2,1.2,69,0.00,CLR,CLR,0.00,WeatherDisplay:10.37,2013-07-03 02:39:00,
2013-07-02 21:44:00,70.5,60.2,30.01,WSW,257,0.0,0.0,70,0.00,CLR,CLR,0.00,WeatherDisplay:10.37,2013-07-03 02:44:00,
2013-07-02 21:49:00,70.5,59.8,30.01,WSW,257,0.0,0.0,69,0.00,CLR,CLR,0.00,WeatherDisplay:10.37,2013-07-03 02:49:00,
2013-07-02 21:54:00,70.4,60.1,30.01,WSW,257,0.0,0.0,70,0.00,CLR,CLR,0.00,WeatherDisplay:10.37,2013-07-03 02:54:00,
2013-07-02 21:59:00,70.4,60.1,30.01,WSW,257,0.0,0.0,70,0.00,CLR,CLR,0.00,WeatherDisplay:10.37,2013-07-03 02:59:00,
2013-07-02 22:03:00,70.3,60.4,30.01,WSW,256,0.0,0.0,71,0.00,CLR,CLR,0.00,WeatherDisplay:10.37,2013-07-03 03:03:00,
2013-07-02 22:09:00,70.1,60.3,30.01,WSW,256,0.0,0.0,71,0.00,CLR,CLR,0.00,WeatherDisplay:10.37,2013-07-03 03:09:00,
2013-07-02 22:14:00,70.0,59.8,30.01,WSW,257,0.0,0.0,70,0.00,CLR,CLR,0.00,WeatherDisplay:10.37,2013-07-03 03:14:00,
2013-07-02 22:19:00,69.9,60.1,30.01,WSW,257,0.0,0.0,71,0.00,CLR,CLR,0.00,WeatherDisplay:10.37,2013-07-03 03:19:00,
2013-07-02 22:20:00,69.9,60.1,30.01,WSW,256,0.0,0.0,71,0.00,CLR,CLR,0.00,WeatherDisplay:10.37,2013-07-03 03:20:00,
2013-07-02 22:25:00,69.7,60.3,30.01,WSW,256,0.0,0.0,72,0.00,CLR,CLR,0.00,WeatherDisplay:10.37,2013-07-03 03:25:00,
2013-07-02 22:30:00,69.7,59.9,30.01,WSW,256,0.0,0.0,71,0.00,CLR,CLR,0.00,WeatherDisplay:10.37,2013-07-03 03:30:00,
2013-07-02 22:35:00,69.7,59.9,30.01,WSW,256,0.0,1.0,71,0.00,CLR,CLR,0.00,WeatherDisplay:10.37,2013-07-03 03:35:00,
2013-07-02 22:39:00,69.7,59.9,30.02,WSW,257,0.0,0.0,71,0.00,CLR,CLR,0.00,WeatherDisplay:10.37,2013-07-03 03:39:00,
2013-07-02 22:44:00,69.7,59.5,30.02,WSW,257,0.0,0.0,70,0.00,CLR,CLR,0.00,WeatherDisplay:10.37,2013-07-03 03:44:00,
2013-07-02 22:49:00,69.7,59.5,30.01,WSW,257,0.0,0.0,70,0.00,CLR,CLR,0.00,WeatherDisplay:10.37,2013-07-03 03:49:00,
2013-07-02 22:55:00,69.4,59.2,30.01,WSW,257,0.0,0.0,70,0.00,CLR,CLR,0.00,WeatherDisplay:10.37,2013-07-03 03:55:00,
2013-07-02 23:00:00,69.3,59.5,30.01,WSW,257,0.0,0.0,71,0.00,CLR,CLR,0.00,WeatherDisplay:10.37,2013-07-03 04:00:00,
2013-07-02 23:01:00,69.3,59.1,30.01,WSW,256,0.0,0.0,70,0.00,CLR,CLR,0.00,WeatherDisplay:10.37,2013-07-03 04:01:00,
2013-07-02 23:02:00,69.3,59.1,30.01,WSW,256,0.0,0.0,70,0.00,CLR,CLR,0.00,WeatherDisplay:10.37,2013-07-03 04:02:00,
2013-07-02 23:03:00,69.2,59.0,30.01,WSW,256,0.0,0.0,70,0.00,CLR,CLR,0.00,WeatherDisplay:10.37,2013-07-03 04:03:00,
2013-07-02 23:04:00,69.2,59.0,30.01,WSW,257,0.0,0.0,70,0.00,CLR,CLR,0.00,WeatherDisplay:10.37,2013-07-03 04:04:00,
2013-07-02 23:05:00,69.2,59.0,30.01,WSW,257,0.0,0.0,70,0.00,CLR,CLR,0.00,WeatherDisplay:10.37,2013-07-03 04:05:00,
2013-07-02 23:06:00,69.2,59.0,30.01,WSW,257,0.0,0.0,70,0.00,CLR,CLR,0.00,WeatherDisplay:10.37,2013-07-03 04:06:00,
2013-07-02 23:11:00,69.1,59.3,30.01,WSW,257,0.0,0.0,71,0.00,CLR,CLR,0.00,WeatherDisplay:10.37,2013-07-03 04:11:00,
2013-07-02 23:15:00,69.0,59.2,30.01,WSW,256,0.0,0.0,71,0.00,CLR,CLR,0.00,WeatherDisplay:10.37,2013-07-03 04:15:00,
2013-07-02 23:21:00,68.7,58.9,30.01,WSW,257,0.0,0.0,71,0.00,CLR,CLR,0.00,WeatherDisplay:10.37,2013-07-03 04:21:00,
2013-07-02 23:26:00,68.4,59.0,30.01,WSW,257,0.0,0.0,72,0.00,CLR,CLR,0.00,WeatherDisplay:10.37,2013-07-03 04:26:00,
2013-07-02 23:31:00,68.1,58.7,30.01,WSW,256,0.0,0.0,72,0.00,CLR,CLR,0.00,WeatherDisplay:10.37,2013-07-03 04:31:00,
2013-07-02 23:33:00,68.0,59.0,30.01,WSW,256,0.0,0.0,73,0.00,CLR,CLR,0.00,WeatherDisplay:10.37,2013-07-03 04:33:00,
2013-07-02 23:37:00,67.9,59.3,30.01,WSW,257,0.0,0.0,74,0.00,CLR,CLR,0.00,WeatherDisplay:10.37,2013-07-03 04:37:00,
2013-07-02 23:43:00,67.6,59.4,30.02,WSW,256,0.0,0.0,75,0.00,CLR,CLR,0.00,WeatherDisplay:10.37,2013-07-03 04:43:00,
2013-07-02 23:48:00,67.4,59.2,30.01,WSW,256,0.0,0.0,75,0.00,CLR,CLR,0.00,WeatherDisplay:10.37,2013-07-03 04:48:00,
2013-07-02 23:52:00,67.2,59.4,30.02,WSW,256,0.0,0.0,76,0.00,CLR,CLR,0.00,WeatherDisplay:10.37,2013-07-03 04:52:00,
2013-07-02 23:54:00,67.2,59.4,30.02,WSW,257,0.0,0.0,76,0.00,CLR,CLR,0.00,WeatherDisplay:10.37,2013-07-03 04:54:00,
2013-07-02 23:55:00,67.2,59.3,30.02,WSW,257,0.0,0.0,76,0.00,CLR,CLR,0.00,WeatherDisplay:10.37,2013-07-03 04:55:00,